+ View the NASA Portal
+ Center for Near-Earth Object Studies
IMPORTANT:
The SSD Announcement email list is now available. Major changes are coming in the near future, including possible hostname and/or URL changes. To be notified of such changes, subscribe to this email list.
Please visit
this page
for more details.
Don't show this message again
JPL Small-Body Database Browser
Search:
[
help
]
109824 (2001 RC114)
Classification:
Main-belt Asteroid
SPK-ID:
2109824
[
Ephemeris
|
Orbit Diagram
|
Orbital Elements
|
Mission Design
|
Physical Parameters
|
Discovery Circumstances
|
Close-Approach Data
]
[ show orbit diagram ]
Orbital Elements at Epoch 2458600.5 (2019-Apr-27.0) TDB
Reference:
JPL 17
(heliocentric ecliptic J2000)
Element
Value
Uncertainty (1-sigma)
Units
e
.2037320471850561
4.2449e-08
a
2.616282018468368
1.362e-08
au
q
2.083261526832356
1.1091e-07
au
i
3.40163560226433
5.533e-06
deg
node
23.41339265398403
6.6817e-05
deg
peri
299.6926852371489
6.8021e-05
deg
M
76.69775974648392
1.3827e-05
deg
t
p
2458271.189605260863
(2018-Jun-01.68960526)
5.8821e-05
TDB
period
1545.700193825074
4.23
1.207e-05
3.305e-08
d
yr
n
.2329041566004623
1.8188e-09
deg/d
Q
3.149302510104379
1.6395e-08
au
Orbit Determination Parameters
# obs. used (total)
614
data-arc span
7715 days (21.12 yr)
first obs. used
1997-10-30
last obs. used
2018-12-14
planetary ephem.
DE431
SB-pert. ephem.
SB431-N16
condition code
0
norm. resid. RMS
.55065
source
ORB
producer
Otto Matic
solution date
2019-Jul-13 09:33:48
Additional Information
Earth MOID
= 1.07275 au
Jupiter MOID
= 2.18656 au
T_jup
= 3.375
[ show covariance matrix ]
[
Ephemeris
|
Orbit Diagram
|
Orbital Elements
|
Mission Design
|
Physical Parameters
|
Discovery Circumstances
|
Close-Approach Data
]
Physical Parameter Table
Parameter
Symbol
Value
Units
Sigma
Reference
Notes
absolute magnitude
H
15.9
n/a
MPO449654
109824 (2001 RC114)
Discovered 2001-Sep-12 by LINEAR at Socorro
Reference:
20051019/Numbers.arc
Last Updated:
2005-10-26
[ show close-approach data ]
Alternate Designations
2001 RC114
= 2000 GS27
[
Ephemeris
|
Orbit Diagram
|
Orbital Elements
|
Mission Design
|
Physical Parameters
|
Discovery Circumstances
|
Close-Approach Data
]
2019-Dec-09 08:14 UT
(server date/time)
Site Manager:
Ryan S. Park
Webmaster
:
Alan B. Chamberlin